PBO Station Position Time Series. Reference Frame : NAM14
Format Version,1.1.0
4-character ID,P783
Station name,Wanship2__UT2008
Begin Date, 2008-04-30
End Date, 2019-10-07
Release Date, 2019-10-08
Reference position, 40.8075732579 North Latitude, -111.4147217990 East Longitude, 1819.78897 meters elevation,
Date, North (mm), East (mm), Vertical (mm), North Std. Deviation (mm), East Std. Deviation (mm),              Vertical Std. Deviation (mm), Quality,
2008-04-30,0.00, 0.00, 0.00, 2.14, 1.60, 7.20, repro,
2008-05-01,0.31, -0.87, -9.04, 2.15, 1.59, 7.18, repro,
2008-05-02,0.12, -0.83, -6.56, 2.15, 1.58, 7.14, repro,
2008-05-03,-0.19, -1.03, -8.72, 2.15, 1.58, 7.14, repro,
2008-05-04,0.38, -0.46, -6.38, 2.09, 1.55, 6.98, repro,
2008-05-05,0.50, -0.78, -10.66, 2.14, 1.58, 7.11, repro,
2008-05-06,-0.34, -0.51, -7.62, 2.15, 1.59, 7.16, repro,
2008-05-07,-1.31, -0.67, -8.93, 2.09, 1.55, 6.94, repro,
2008-05-08,-0.23, -0.38, -9.00, 2.12, 1.58, 7.07, repro,
2008-05-09,1.88, -0.65, -14.08, 2.11, 1.58, 7.06, repro,
2008-05-10,2.72, -4.01, -12.18, 2.08, 1.55, 6.91, repro,
2008-05-11,-0.02, -1.38, -3.74, 2.13, 1.59, 7.10, repro,
2008-05-12,-0.62, -1.56, -1.99, 2.15, 1.59, 7.16, repro,
2008-05-13,0.37, -0.42, -5.32, 2.12, 1.55, 6.98, repro,
2008-05-14,-0.43, 0.18, -7.77, 2.11, 1.55, 7.00, repro,
2008-05-15,0.00, -0.98, -14.22, 2.09, 1.55, 6.96, repro,
2008-05-16,-0.22, -0.51, -12.91, 2.10, 1.56, 6.99, repro,
2008-05-17,1.50, -1.71, -13.51, 2.13, 1.57, 7.09, repro,
2008-05-18,-0.42, -1.48, -7.27, 2.15, 1.58, 7.17, repro,
2008-05-19,-0.14, -2.98, -15.19, 2.07, 1.55, 6.99, repro,
2008-05-20,0.44, 0.12, -2.26, 2.09, 1.55, 7.02, repro,
2008-05-21,0.63, -0.40, -0.12, 2.13, 1.59, 7.22, repro,
2008-05-22,-0.51, 0.45, -3.79, 2.16, 1.62, 7.34, repro,
2008-05-23,-0.77, -0.81, -9.78, 2.10, 1.57, 7.10, repro,
2008-05-24,-1.02, -0.47, -14.97, 2.12, 1.60, 7.21, repro,
2008-05-25,-1.74, 0.11, -7.66, 2.13, 1.58, 7.17, repro,
2008-05-26,-0.52, -0.07, -3.28, 2.10, 1.58, 7.09, repro,
2008-05-27,-0.45, 0.62, -10.41, 2.12, 1.58, 7.14, repro,
2008-05-28,0.73, -1.05, -7.71, 2.09, 1.55, 7.03, repro,
2008-05-29,-0.65, -0.68, -6.97, 2.12, 1.60, 7.14, repro,
2008-05-30,-0.47, -0.70, -9.77, 2.07, 1.55, 7.01, repro,
2008-05-31,-1.19, -0.52, -7.11, 2.09, 1.56, 7.06, repro,
2008-06-01,0.17, -0.02, -12.43, 2.13, 1.60, 7.23, repro,
2008-06-02,1.09, 0.10, -8.56, 2.13, 1.60, 7.27, repro,
2008-06-03,-0.46, -0.56, -10.87, 2.16, 1.61, 7.33, repro,
2008-06-04,-1.68, -0.44, -3.54, 2.07, 1.56, 7.00, repro,
2008-06-05,-0.17, -0.77, -3.69, 2.06, 1.55, 6.91, repro,
2008-06-06,-1.64, 0.37, -1.74, 2.20, 1.68, 7.49, repro,
2008-06-07,0.74, -1.68, -3.99, 2.13, 1.63, 7.22, repro,
2008-06-08,0.04, -0.64, -12.77, 2.11, 1.59, 7.05, repro,
2008-06-09,-0.81, -0.49, -8.79, 2.10, 1.60, 7.09, repro,
2008-06-10,0.89, -0.28, -8.11, 2.09, 1.56, 6.98, repro,
2008-06-11,1.04, -2.32, -7.57, 2.07, 1.55, 6.92, repro,
2008-06-12,-0.44, -1.56, -8.57, 2.10, 1.58, 7.08, repro,
2008-06-13,-1.56, 0.79, -13.87, 2.09, 1.55, 6.98, repro,
2008-06-14,-0.55, -1.21, -6.05, 2.14, 1.58, 7.17, repro,
2008-06-15,-0.63, 0.02, -10.34, 2.15, 1.58, 7.17, repro,
2008-06-16,-1.16, -1.98, -9.42, 2.08, 1.55, 6.99, repro,
2008-06-17,0.49, -1.60, -9.28, 2.18, 1.60, 7.23, repro,
2008-06-18,-0.58, 0.47, -12.42, 2.18, 1.59, 7.28, repro,
2008-06-19,0.04, 1.15, -9.49, 2.14, 1.63, 7.34, repro,
2008-06-20,-0.46, 0.12, -10.36, 2.09, 1.57, 7.03, repro,
2008-06-21,0.63, -0.07, -7.01, 2.14, 1.62, 7.14, repro,
2008-06-22,-0.72, 1.18, -13.56, 2.09, 1.56, 7.00, repro,
2008-06-23,0.04, 0.83, -4.93, 2.31, 1.70, 7.68, repro,
2008-06-24,-1.23, -0.43, -6.61, 2.13, 1.62, 7.10, repro,
2008-06-25,0.24, -1.26, -5.67, 2.09, 1.57, 7.04, repro,
2008-06-26,-0.44, -0.49, -3.08, 2.17, 1.66, 7.27, repro,
2008-06-27,-0.38, -1.02, -9.10, 2.08, 1.56, 6.97, repro,
2008-06-28,-0.07, 0.64, -12.90, 2.12, 1.61, 7.06, repro,
2008-06-29,1.66, 1.70, -10.70, 2.19, 1.63, 7.22, repro,
2008-06-30,-0.68, 1.87, -10.79, 2.10, 1.55, 7.01, repro,
2008-07-01,1.44, 0.37, -5.70, 2.14, 1.61, 7.12, repro,
2008-07-02,1.77, -0.09, -12.20, 2.08, 1.54, 6.95, repro,
2008-07-03,1.10, 0.82, -7.91, 2.15, 1.65, 7.28, repro,
2008-07-04,0.62, 1.34, 0.73, 2.10, 1.60, 7.06, repro,
2008-07-05,-0.16, -0.35, -2.63, 2.08, 1.55, 6.98, repro,
2008-07-06,-0.72, 0.98, -1.15, 2.10, 1.55, 7.01, repro,
2008-07-07,0.10, 0.81, -4.36, 2.19, 1.65, 7.33, repro,
2008-07-08,-0.66, -0.09, 2.66, 2.14, 1.63, 7.31, repro,
2008-07-09,-0.52, 0.85, -5.93, 2.19, 1.67, 7.36, repro,
2008-07-10,-2.03, -0.37, 4.75, 2.13, 1.58, 7.06, repro,
2008-07-11,0.30, -2.24, -1.53, 2.21, 1.67, 7.39, repro,
2008-07-12,0.83, -0.75, -6.35, 2.14, 1.62, 7.15, repro,
2008-07-13,-0.45, 0.70, -1.70, 2.14, 1.63, 7.17, repro,
2008-07-14,-1.11, -0.76, 2.06, 2.12, 1.63, 7.11, repro,
2008-07-15,0.44, 1.30, -2.13, 2.06, 1.55, 6.91, repro,
2008-07-16,-1.24, 0.04, -9.33, 2.15, 1.63, 7.18, repro,
2008-07-17,-0.41, 1.16, -3.50, 2.17, 1.65, 7.31, repro,
2008-07-18,0.74, -0.39, -9.67, 2.23, 1.62, 7.44, repro,
2008-07-19,1.39, -0.16, -2.16, 2.15, 1.58, 7.18, repro,
2008-07-20,0.27, 1.07, 1.39, 2.06, 1.55, 6.91, repro,
2008-07-21,-1.03, 0.96, -1.37, 2.09, 1.56, 6.93, repro,
2008-07-22,0.54, -1.70, 1.07, 2.12, 1.59, 7.16, repro,
2008-07-23,2.98, -1.88, 8.46, 2.23, 1.64, 7.48, repro,
2008-07-24,1.57, -0.90, 6.30, 2.09, 1.56, 7.01, repro,
2008-07-25,0.33, -0.54, -0.61, 2.07, 1.55, 6.91, repro,
2008-07-26,-0.92, 0.14, -5.82, 2.11, 1.61, 7.05, repro,
2008-07-27,0.44, 0.14, -6.54, 2.09, 1.55, 7.01, repro,
2008-07-28,1.16, 0.58, -10.32, 2.19, 1.61, 7.39, repro,
2008-07-29,0.47, -0.14, 3.65, 2.13, 1.58, 7.14, repro,
2008-07-30,1.24, -3.03, 4.81, 2.12, 1.58, 7.18, repro,
2008-07-31,0.45, -1.16, 8.93, 2.11, 1.60, 7.03, repro,
2008-08-01,-0.45, -0.84, -1.57, 2.06, 1.54, 6.92, repro,
2008-08-02,-0.13, 0.58, 13.33, 2.08, 1.55, 6.96, repro,
2008-08-03,1.22, -0.88, 3.50, 2.17, 1.63, 7.37, repro,
2008-08-04,-0.25, -0.80, 4.64, 2.06, 1.55, 6.97, repro,
2008-08-05,-1.06, 0.25, -0.15, 2.06, 1.55, 6.95, repro,
2008-08-06,-1.60, -0.23, 0.47, 2.11, 1.54, 6.96, repro,
2008-08-07,-1.10, 2.10, -3.18, 2.19, 1.68, 7.40, repro,
2008-08-08,-0.48, 0.01, -1.25, 2.21, 1.68, 7.31, repro,
2008-08-09,-0.23, 0.86, -2.17, 2.23, 1.71, 7.53, repro,
2008-08-10,-0.72, 1.30, -6.03, 2.17, 1.63, 7.36, repro,
2008-08-11,-0.39, 0.44, -5.40, 2.12, 1.56, 7.02, repro,
2008-08-12,-0.66, -0.59, -1.37, 2.11, 1.56, 7.02, repro,
2008-08-13,-0.80, -2.42, 6.88, 2.23, 1.62, 7.37, repro,
2008-08-14,0.28, -0.44, 4.24, 2.16, 1.63, 7.17, repro,
2008-08-15,1.43, -0.71, -6.44, 2.12, 1.57, 7.12, repro,
2008-08-16,-0.67, -0.43, -1.73, 2.13, 1.57, 7.08, repro,
2008-08-17,-0.14, -1.09, 1.36, 2.13, 1.57, 7.09, repro,
2008-08-18,-1.36, 2.40, 9.99, 2.14, 1.57, 7.08, repro,
2008-08-19,-1.39, -0.02, 9.00, 2.11, 1.57, 7.04, repro,
2008-08-20,-0.71, 0.52, 11.59, 2.10, 1.57, 7.00, repro,
2008-08-21,0.54, -1.89, 7.88, 2.13, 1.58, 7.07, repro,
2008-08-22,-0.18, -0.65, -2.78, 2.13, 1.58, 7.11, repro,
2008-08-23,0.67, -1.50, -0.59, 2.12, 1.56, 7.04, repro,
2008-08-24,-0.45, -0.93, -0.17, 2.12, 1.58, 7.10, repro,
2008-08-25,-1.22, 2.49, 3.65, 2.10, 1.57, 7.03, repro,
2008-08-26,-0.02, 0.13, -1.70, 2.11, 1.56, 7.02, repro,
2008-08-27,-0.75, -0.14, -5.66, 2.12, 1.58, 7.06, repro,
2008-08-28,0.73, 0.05, 6.88, 2.26, 1.64, 7.49, repro,
2008-08-29,0.10, -0.40, 6.29, 2.18, 1.65, 7.38, repro,
2008-08-30,0.38, -0.71, 8.95, 2.13, 1.60, 7.15, repro,
2008-08-31,-0.93, 0.26, -2.15, 2.17, 1.62, 7.32, repro,
2008-09-01,0.35, -1.97, 4.52, 2.13, 1.60, 7.15, repro,
2008-09-02,1.23, 0.28, -5.41, 2.14, 1.58, 7.12, repro,
2008-09-03,0.53, -0.42, -3.71, 2.14, 1.60, 7.15, repro,
2008-09-04,1.23, -1.25, 0.08, 2.27, 1.67, 7.61, repro,
2008-09-05,-2.02, -0.17, 3.74, 2.21, 1.62, 7.39, repro,
2008-09-06,0.10, -0.53, -1.94, 2.14, 1.59, 7.14, repro,
2008-09-07,-1.02, -0.45, 1.50, 2.20, 1.66, 7.41, repro,
2008-09-08,1.26, -1.54, -3.75, 2.16, 1.62, 7.25, repro,
2008-09-09,1.40, -1.39, 3.18, 2.17, 1.59, 7.20, repro,
2008-09-10,-0.36, -0.01, -0.55, 2.21, 1.68, 7.52, repro,
2008-09-11,0.73, 0.92, -3.65, 2.22, 1.68, 7.56, repro,
2008-09-12,1.28, -0.31, 4.75, 2.30, 1.70, 7.74, repro,
2008-09-13,1.51, 0.09, 1.70, 2.20, 1.66, 7.41, repro,
2008-09-14,0.10, 0.13, 0.67, 2.17, 1.62, 7.28, repro,
2008-09-15,0.41, 0.23, -5.66, 2.16, 1.63, 7.31, repro,
2008-09-16,-0.46, 0.12, -4.71, 2.18, 1.65, 7.35, repro,
2008-09-17,-0.51, -0.47, -0.09, 2.23, 1.62, 7.36, repro,
2008-09-18,0.51, -0.09, -2.26, 2.16, 1.58, 7.15, repro,
2008-09-19,0.31, 0.24, -5.92, 2.14, 1.59, 7.12, repro,
2008-09-20,0.45, -1.07, -5.38, 2.13, 1.58, 7.15, repro,
2008-09-21,-0.93, -0.34, -3.56, 2.16, 1.61, 7.26, repro,
2008-09-22,1.15, -0.62, -1.53, 2.16, 1.60, 7.19, repro,
2008-09-23,0.80, -0.48, -3.67, 2.12, 1.56, 7.00, repro,
2008-09-24,0.39, 0.40, 1.10, 2.19, 1.64, 7.36, repro,
2008-09-25,-0.35, -1.33, 1.45, 2.11, 1.55, 6.98, repro,
2008-09-26,-1.19, -0.08, 0.61, 2.13, 1.57, 7.06, repro,
2008-09-27,0.28, -1.04, -2.36, 2.16, 1.60, 7.19, repro,
2008-09-28,0.08, -0.29, 1.11, 2.14, 1.57, 7.09, repro,
2008-09-29,1.15, 0.14, -5.80, 2.16, 1.60, 7.21, repro,
2008-09-30,-0.40, -0.32, -2.21, 2.17, 1.58, 7.21, repro,
2008-10-01,-1.37, 0.96, 0.59, 2.12, 1.56, 7.07, repro,
2008-10-02,-1.18, 0.13, 0.65, 2.20, 1.66, 7.41, repro,
2008-10-03,-0.79, -0.36, -0.60, 2.21, 1.65, 7.38, repro,
2008-10-04,-0.61, -0.10, 4.28, 2.11, 1.55, 6.97, repro,
2008-10-05,1.48, -0.09, 0.48, 2.12, 1.55, 6.96, repro,
2008-10-06,-0.41, -0.78, -2.83, 2.12, 1.55, 7.01, repro,
2008-10-07,-0.67, 0.10, -9.96, 2.14, 1.56, 7.10, repro,
2008-10-08,1.09, -2.03, -0.85, 2.15, 1.59, 7.14, repro,
2008-10-09,1.72, 0.44, -0.40, 2.08, 1.54, 6.92, repro,
2008-10-10,0.33, -0.35, 1.04, 2.08, 1.53, 6.90, repro,
2008-10-11,-0.28, -0.27, -1.98, 2.09, 1.54, 6.91, repro,
2008-10-12,0.66, -0.21, -3.61, 2.07, 1.54, 6.91, repro,
2008-10-13,0.27, -0.42, -6.41, 2.08, 1.54, 6.92, repro,
2008-10-14,-0.57, 0.27, -4.79, 2.08, 1.54, 6.97, repro,
2008-10-15,0.40, -0.83, -8.88, 2.14, 1.54, 7.06, repro,
2008-10-16,1.39, -1.30, -11.07, 2.16, 1.55, 7.12, repro,
2008-10-17,0.01, 0.43, -11.52, 2.07, 1.54, 6.90, repro,
2008-10-18,-0.25, 0.11, -9.52, 2.10, 1.54, 6.95, repro,
2008-10-19,-1.11, -0.48, -8.25, 2.08, 1.55, 6.96, repro,
2008-10-20,-0.04, 0.12, -2.14, 2.07, 1.54, 6.93, repro,
2008-10-21,-0.16, -3.34, -0.44, 2.09, 1.55, 7.01, repro,
2008-10-22,0.06, -0.32, -13.70, 2.08, 1.55, 6.97, repro,
2008-10-23,-0.35, -0.14, -6.65, 2.08, 1.55, 6.97, repro,
2008-10-24,-0.67, -0.11, 0.37, 2.08, 1.55, 6.95, repro,
2008-10-25,1.34, -1.04, -9.86, 2.08, 1.54, 6.95, repro,
2008-10-26,0.86, -1.22, -10.58, 2.06, 1.53, 6.87, repro,
2008-10-27,0.12, -0.97, -14.37, 2.07, 1.53, 6.89, repro,
2008-10-28,0.46, -0.37, -14.59, 2.16, 1.58, 7.07, repro,
2008-10-29,0.32, -1.25, -6.86, 2.18, 1.58, 7.13, repro,
2008-10-30,0.61, -0.36, -6.46, 2.09, 1.55, 6.99, repro,
2008-10-31,-0.26, -0.77, -9.17, 2.17, 1.61, 7.29, repro,
2008-11-01,1.01, -0.19, -10.09, 2.08, 1.54, 6.93, repro,
2008-11-02,1.34, -1.86, -4.47, 2.12, 1.60, 7.17, repro,
2008-11-03,-0.53, -0.71, -2.83, 2.15, 1.63, 7.19, repro,
2008-11-04,0.19, -0.43, -0.25, 2.16, 1.63, 7.24, repro,
2008-11-05,0.45, -2.86, -6.37, 2.13, 1.62, 7.16, repro,
2008-11-06,0.47, 0.12, -5.51, 2.09, 1.56, 6.98, repro,
2008-11-07,0.23, -1.65, -5.42, 2.14, 1.62, 7.17, repro,
2008-11-08,-0.89, -0.22, -3.99, 2.13, 1.60, 7.16, repro,
2008-11-09,-1.16, -0.35, -2.71, 2.13, 1.59, 7.12, repro,
2008-11-10,-0.78, 0.51, 2.59, 2.18, 1.65, 7.28, repro,
2008-11-11,-1.31, -0.91, -1.04, 2.23, 1.69, 7.62, repro,
2008-11-12,2.33, -0.53, -4.33, 2.10, 1.56, 6.98, repro,
2008-11-13,2.11, -7.67, -12.42, 2.13, 1.60, 7.07, repro,
2008-11-14,2.38, -2.58, -8.55, 2.20, 1.67, 7.36, repro,
2008-11-15,-1.16, -1.25, -11.65, 2.18, 1.64, 7.24, repro,
2008-11-16,0.72, -0.42, -9.88, 2.20, 1.66, 7.38, repro,
2008-11-17,-1.04, -1.08, -10.76, 2.21, 1.71, 7.51, repro,
2008-11-18,-0.34, -1.15, -13.74, 2.23, 1.69, 7.65, repro,
2008-11-19,0.57, -1.41, -7.87, 2.20, 1.62, 7.38, repro,
2008-11-20,-0.15, -0.10, -9.34, 2.18, 1.67, 7.36, repro,
2008-11-21,0.21, -1.57, -10.57, 2.27, 1.77, 7.86, repro,
2008-11-22,-0.22, -0.98, -5.95, 2.30, 1.74, 7.87, repro,
2008-11-23,0.28, -1.58, -5.85, 2.24, 1.70, 7.56, repro,
2008-11-24,-0.37, -0.36, -6.28, 2.30, 1.74, 7.75, repro,
2008-11-25,-0.09, -0.33, -5.46, 2.18, 1.64, 7.28, repro,
2008-11-26,-0.06, -0.77, -3.11, 2.10, 1.56, 7.02, repro,
2008-11-27,0.23, -1.33, -5.81, 2.16, 1.62, 7.28, repro,
2008-11-28,-0.90, 0.02, 2.52, 2.20, 1.68, 7.45, repro,
2008-11-29,-1.89, -0.13, -2.91, 2.21, 1.74, 7.60, repro,
2008-11-30,-0.73, -0.51, -2.35, 2.09, 1.56, 7.00, repro,
2008-12-01,-1.67, -1.27, -5.47, 2.11, 1.57, 7.05, repro,
2008-12-02,1.02, -0.18, -1.58, 2.16, 1.64, 7.26, repro,
2008-12-03,1.14, -0.49, -1.93, 2.16, 1.64, 7.28, repro,
2008-12-04,-0.22, -0.08, -7.28, 2.17, 1.71, 7.48, repro,
2008-12-05,-1.08, -0.10, -8.31, 2.15, 1.64, 7.27, repro,
2008-12-06,-1.56, 0.38, -7.04, 2.30, 1.81, 7.86, repro,
2008-12-07,0.26, -2.19, -8.54, 2.24, 1.73, 7.63, repro,
2008-12-08,0.13, -2.41, -4.91, 2.14, 1.62, 7.22, repro,
2008-12-09,0.93, -1.03, -9.90, 2.11, 1.60, 7.07, repro,
2008-12-10,-0.81, -1.37, -10.45, 2.12, 1.60, 7.12, repro,
2008-12-11,0.26, -1.10, -6.64, 2.27, 1.69, 7.57, repro,
2008-12-12,0.36, -1.04, -3.70, 2.26, 1.71, 7.68, repro,
2008-12-13,-0.07, -1.26, 1.31, 2.12, 1.58, 7.09, repro,
2008-12-14,0.26, 0.15, 6.19, 2.11, 1.60, 7.06, repro,
2008-12-15,-0.54, -0.40, -1.50, 2.09, 1.55, 6.97, repro,
2008-12-16,-0.17, -0.42, 3.52, 2.07, 1.55, 6.91, repro,
2008-12-17,0.48, -0.67, -6.55, 2.15, 1.59, 7.12, repro,
2008-12-18,0.75, -0.42, -1.37, 2.08, 1.55, 6.95, repro,
2008-12-19,0.48, 0.05, -4.56, 2.13, 1.58, 7.06, repro,
2008-12-20,0.48, -0.89, -9.50, 2.07, 1.54, 6.91, repro,
2008-12-21,-0.19, -1.68, -9.80, 2.08, 1.55, 6.96, repro,
2008-12-22,0.21, 0.88, -1.48, 2.06, 1.55, 6.90, repro,
2008-12-23,0.65, -1.85, -3.64, 2.09, 1.56, 7.01, repro,
2008-12-24,0.52, -0.63, -7.43, 2.08, 1.56, 6.99, repro,
2008-12-25,0.31, 1.59, -4.58, 2.09, 1.55, 6.98, repro,
2008-12-26,0.71, 0.03, 1.21, 2.09, 1.54, 6.98, repro,
2008-12-27,0.55, -0.36, -7.63, 2.07, 1.54, 6.94, repro,
2008-12-28,0.07, -1.71, -13.40, 2.11, 1.59, 7.12, repro,
2008-12-29,0.46, -0.16, -9.86, 2.09, 1.57, 7.07, repro,
2008-12-30,1.48, 0.12, -13.78, 2.08, 1.55, 6.93, repro,
2008-12-31,-0.19, -1.21, -13.16, 2.10, 1.55, 7.00, repro,
2009-01-01,0.84, -4.66, 1.13, 2.13, 1.56, 7.04, repro,
2009-01-02,0.37, 0.42, -6.99, 2.07, 1.55, 6.97, repro,
2009-01-03,0.66, 0.14, -7.47, 2.09, 1.58, 7.10, repro,
2009-01-04,1.20, -1.02, -9.08, 2.08, 1.56, 6.99, repro,
2009-01-05,0.33, -0.87, -5.86, 2.08, 1.57, 7.03, repro,
2009-01-06,2.73, -1.79, -8.25, 2.08, 1.56, 6.98, repro,
2009-01-07,0.50, -4.41, -13.75, 2.10, 1.59, 7.05, repro,
2009-01-08,1.05, -2.05, -8.41, 2.12, 1.60, 7.14, repro,
2009-01-09,2.06, -1.45, -13.44, 2.11, 1.61, 7.13, repro,
2009-01-10,1.07, -0.47, -17.49, 2.08, 1.58, 7.04, repro,
2009-01-11,1.92, -0.66, -18.86, 2.08, 1.57, 6.97, repro,
2009-01-12,2.30, -1.81, -15.92, 2.15, 1.60, 7.15, repro,
2009-01-13,1.15, -0.50, -17.85, 2.14, 1.59, 7.15, repro,
2009-01-14,0.78, -1.42, -21.72, 2.12, 1.59, 7.10, repro,
2009-01-15,0.66, -0.53, -16.50, 2.13, 1.59, 7.13, repro,
2009-01-16,1.13, -1.22, -19.59, 2.15, 1.62, 7.20, repro,
2009-01-17,1.13, -1.19, -20.05, 2.14, 1.62, 7.18, repro,
2009-01-18,0.45, -1.53, -16.71, 2.06, 1.58, 6.99, repro,
2009-01-19,0.64, -1.10, -18.65, 2.10, 1.59, 7.11, repro,
2009-01-20,0.11, -0.76, -16.07, 2.08, 1.60, 7.09, repro,
2009-01-21,0.12, 0.01, -11.33, 2.08, 1.60, 7.09, repro,
2009-01-22,1.29, -0.63, -12.97, 2.13, 1.61, 7.19, repro,
2009-01-23,0.69, -0.31, -13.90, 2.13, 1.60, 7.15, repro,
2009-01-24,1.80, -1.14, -21.45, 2.11, 1.60, 7.09, repro,
2009-01-25,0.38, -0.10, -16.16, 2.11, 1.59, 7.11, repro,
2009-01-26,-0.31, -0.88, -12.73, 2.07, 1.59, 7.09, repro,
2009-01-27,-1.14, -2.39, -9.57, 2.06, 1.58, 7.00, repro,
2009-01-28,-0.37, -3.14, -19.33, 2.07, 1.58, 7.06, repro,
2009-01-29,1.14, -1.58, -21.31, 2.06, 1.57, 6.97, repro,
2009-01-30,-0.62, -0.83, -21.08, 2.05, 1.58, 6.98, repro,
2009-01-31,-0.59, -1.51, -12.66, 2.07, 1.59, 7.07, repro,
2009-02-01,0.56, -2.77, -8.76, 2.08, 1.60, 7.07, repro,
2009-02-02,0.55, -0.98, -18.36, 2.06, 1.57, 6.97, repro,
2009-02-03,0.88, 0.18, -19.92, 2.06, 1.58, 6.96, repro,
2009-02-04,-0.60, -0.79, -17.80, 2.05, 1.57, 6.96, repro,
2009-02-05,-0.35, -0.54, -15.71, 2.10, 1.63, 7.25, repro,
2009-02-06,0.54, 0.41, -4.41, 2.18, 1.67, 7.51, repro,
2009-02-07,0.47, -0.79, -10.76, 2.13, 1.63, 7.30, repro,
2009-02-08,0.59, -1.39, -9.11, 2.06, 1.58, 6.98, repro,
2009-02-09,0.34, -0.85, -0.79, 2.10, 1.60, 7.14, repro,
2009-02-10,-0.04, -0.48, -4.20, 2.05, 1.58, 6.97, repro,
2009-02-11,0.02, -0.44, -3.67, 2.15, 1.67, 7.42, repro,
2009-02-12,1.39, -0.95, -3.97, 2.12, 1.65, 7.28, repro,
2009-02-13,0.28, -1.57, -8.71, 2.09, 1.61, 7.13, repro,
2009-02-14,0.62, -1.74, -13.72, 2.04, 1.57, 6.94, repro,
2009-02-15,0.70, -1.30, -11.03, 2.10, 1.61, 7.20, repro,
2009-02-16,0.07, 0.37, -8.27, 2.08, 1.60, 7.11, repro,
2009-02-17,0.60, -2.03, -5.86, 2.12, 1.61, 7.19, repro,
2009-02-18,-0.55, -1.09, -10.26, 2.14, 1.67, 7.46, repro,
2009-02-19,0.22, -1.88, -10.08, 2.16, 1.65, 7.40, repro,
2009-02-20,0.15, -2.73, -15.56, 2.12, 1.65, 7.38, repro,
2009-02-21,0.40, -1.29, -14.42, 2.17, 1.68, 7.55, repro,
2009-02-22,-0.13, -0.85, -15.58, 2.09, 1.61, 7.19, repro,
2009-02-23,1.05, -0.90, -15.40, 2.12, 1.65, 7.40, repro,
2009-02-24,-0.87, 0.32, -9.25, 2.20, 1.75, 7.72, repro,
2009-02-25,0.99, 0.05, -13.24, 104.14, 112.42, 249.63, repro,
2009-02-26,2.59, -3.14, -8.32, 2.17, 1.71, 7.69, repro,
2009-02-27,2.04, -3.49, -12.94, 2.28, 1.84, 8.16, repro,
2009-02-28,-0.17, -0.74, -18.86, 2.13, 1.66, 7.53, repro,
2009-03-01,0.74, -1.45, -13.26, 2.16, 1.72, 7.74, repro,
2009-03-02,0.89, -0.39, -15.92, 2.13, 1.65, 7.45, repro,
2009-03-03,2.27, -2.23, -14.32, 2.18, 1.71, 7.75, repro,
2009-03-04,2.16, -1.63, -2.41, 2.10, 1.62, 7.24, repro,
2009-03-05,0.83, -0.67, -0.40, 2.20, 1.74, 7.81, repro,
2009-03-06,-0.45, -1.35, -2.19, 2.27, 1.80, 8.02, repro,
2009-03-07,0.29, -0.97, -4.13, 2.11, 1.63, 7.36, repro,
2009-03-08,0.94, -0.18, -4.21, 2.09, 1.62, 7.26, repro,
2009-03-09,-0.74, -0.11, -6.71, 2.26, 1.77, 8.09, repro,
2009-03-10,2.03, -1.84, -12.24, 2.09, 1.62, 7.28, repro,
2009-03-11,0.70, -1.23, -10.98, 2.10, 1.62, 7.23, repro,
2009-03-12,1.10, -1.45, -11.29, 2.13, 1.66, 7.48, repro,
2009-03-13,-0.04, -1.24, -12.81, 2.24, 1.77, 7.95, repro,
2009-03-14,0.20, -1.15, -7.36, 2.15, 1.68, 7.58, repro,
2009-03-15,-0.12, -0.41, -2.94, 2.07, 1.59, 7.08, repro,
2009-03-16,2.16, 0.47, -10.75, 2.14, 1.67, 7.49, repro,
2009-03-17,1.23, -1.48, -10.64, 2.08, 1.59, 7.06, repro,
2009-03-18,0.52, -0.92, -11.62, 2.09, 1.60, 7.11, repro,
2009-03-19,0.06, -0.97, -12.26, 2.08, 1.59, 7.08, repro,
2009-03-20,1.60, -0.59, -12.04, 2.08, 1.61, 7.14, repro,
2009-03-21,-0.88, -0.40, -1.57, 2.09, 1.60, 7.10, repro,
2009-03-22,1.96, 1.85, 3.32, 2.09, 1.60, 7.11, repro,
2009-03-23,1.72, -1.25, -9.05, 2.08, 1.59, 7.05, repro,
2009-03-24,0.71, -0.86, -11.17, 2.07, 1.59, 7.02, repro,
2009-03-25,0.21, -2.93, -9.65, 2.09, 1.60, 7.09, repro,
2009-03-26,3.90, -2.17, -11.73, 2.10, 1.60, 7.11, repro,
2009-03-27,1.66, -0.70, -10.09, 2.14, 1.62, 7.23, repro,
2009-03-28,2.30, -0.25, -10.12, 2.12, 1.60, 7.15, repro,
2009-03-29,-0.12, -1.04, -2.36, 2.14, 1.60, 7.13, repro,
2009-03-30,2.12, -1.56, -6.32, 2.11, 1.58, 7.05, repro,
2009-03-31,1.33, -5.36, -14.63, 2.14, 1.61, 7.18, repro,
2009-04-01,1.21, -0.85, -5.77, 2.13, 1.61, 7.24, repro,
2009-04-02,1.24, -0.96, -7.55, 2.16, 1.66, 7.33, repro,
2009-04-03,0.44, -0.16, -1.29, 2.16, 1.64, 7.29, repro,
2009-04-04,1.27, -0.85, -10.27, 2.14, 1.59, 7.15, repro,
2009-04-05,1.35, -0.27, -16.92, 2.13, 1.60, 7.16, repro,
2009-04-06,0.99, -0.91, -16.79, 2.14, 1.60, 7.18, repro,
2009-04-07,0.39, -0.34, -10.76, 2.12, 1.60, 7.14, repro,
2009-04-08,1.58, -0.53, -8.92, 2.13, 1.59, 7.13, repro,
2009-04-09,2.03, 1.11, -6.08, 2.20, 1.63, 7.37, repro,
2009-04-10,1.42, -0.65, -12.38, 2.14, 1.59, 7.15, repro,
2009-04-11,1.03, -1.03, -10.76, 2.18, 1.63, 7.33, repro,
2009-04-12,0.72, 0.48, -16.05, 2.14, 1.59, 7.17, repro,
2009-04-13,0.12, -1.38, -13.84, 2.17, 1.62, 7.30, repro,
2009-04-14,1.34, -1.63, -9.37, 2.16, 1.60, 7.19, repro,
2009-04-15,0.88, 0.28, -6.42, 2.20, 1.62, 7.33, repro,
2009-04-16,0.63, -2.48, -15.64, 2.13, 1.59, 7.13, repro,
2009-04-17,1.03, -0.98, -16.52, 2.14, 1.59, 7.13, repro,
2009-04-18,0.77, -1.03, -20.73, 2.14, 1.58, 7.11, repro,
2009-04-19,1.93, -0.90, -11.04, 2.14, 1.57, 7.07, repro,
2009-04-20,1.12, -1.09, -19.21, 2.15, 1.59, 7.12, repro,
2009-04-21,1.77, -1.12, -16.94, 2.18, 1.61, 7.21, repro,
2009-04-22,2.51, -2.36, -11.63, 2.19, 1.62, 7.27, repro,
2009-04-23,0.39, -0.79, -9.32, 2.18, 1.62, 7.28, repro,
2009-04-24,1.29, -0.94, -14.26, 2.18, 1.61, 7.24, repro,
2009-04-25,-0.37, -0.35, -14.08, 2.15, 1.58, 7.06, repro,
2009-04-26,0.47, -0.94, -16.75, 2.14, 1.58, 7.06, repro,
2009-04-27,-0.30, -1.87, -15.11, 2.18, 1.61, 7.21, repro,
2009-04-28,2.82, 1.31, -11.91, 2.17, 1.63, 7.21, repro,
2009-04-29,1.97, -0.32, -13.03, 2.20, 1.67, 7.29, repro,
2009-04-30,2.50, -0.92, -17.65, 2.20, 1.64, 7.21, repro,
2009-05-01,-1.04, -0.84, -13.02, 2.16, 1.58, 7.09, repro,
2009-05-02,0.36, -2.05, -18.36, 2.15, 1.58, 7.07, repro,
2009-05-03,-1.08, -2.72, -16.11, 2.14, 1.59, 7.10, repro,
2009-05-04,-0.06, -1.10, -16.50, 2.15, 1.59, 7.14, repro,
2009-05-05,0.82, -1.55, -8.84, 2.15, 1.56, 7.04, repro,
2009-05-06,0.81, -1.83, -13.95, 2.15, 1.57, 7.12, repro,
2009-05-07,2.36, -1.62, -19.27, 2.12, 1.57, 7.07, repro,
2009-05-08,1.58, -2.75, -14.55, 2.11, 1.57, 7.04, repro,
2009-05-09,-0.16, -0.68, -13.99, 2.11, 1.58, 7.05, repro,
2009-05-10,-0.21, -0.46, -12.03, 2.14, 1.60, 7.14, repro,
2009-05-11,0.25, 0.24, -9.48, 2.15, 1.60, 7.15, repro,
2009-05-12,0.40, -1.01, -9.38, 2.20, 1.67, 7.35, repro,
2009-05-13,0.46, -1.37, -9.69, 2.16, 1.61, 7.20, repro,
2009-05-14,-0.91, -1.13, -7.46, 2.11, 1.58, 7.07, repro,
2009-05-15,1.29, -1.68, -16.83, 2.09, 1.57, 7.02, repro,
2009-05-16,-0.24, -0.79, -15.97, 2.10, 1.57, 7.05, repro,
2009-05-17,-0.47, 0.34, -19.85, 2.11, 1.56, 7.07, repro,
2009-05-18,-0.03, -0.10, -20.05, 2.12, 1.57, 7.10, repro,
2009-05-19,0.29, 0.66, -12.65, 2.20, 1.64, 7.44, repro,
2009-05-20,-1.30, -0.30, -7.83, 2.12, 1.58, 7.16, repro,
2009-05-21,-1.33, -0.50, -11.50, 2.09, 1.57, 7.08, repro,
2009-05-22,0.58, -0.89, -15.92, 2.10, 1.56, 7.06, repro,
2009-05-23,0.35, 0.20, -14.67, 2.12, 1.56, 7.05, repro,
2009-05-24,-0.13, -0.38, -12.75, 2.11, 1.56, 7.00, repro,
2009-05-25,0.04, 1.14, -12.50, 2.25, 1.60, 7.43, repro,
2009-05-26,1.55, 0.45, -13.96, 2.15, 1.64, 7.21, repro,
2009-05-27,-0.20, 0.46, -15.24, 2.09, 1.55, 6.96, repro,
2009-05-28,1.11, 0.65, -5.06, 2.15, 1.58, 7.07, repro,
2009-05-29,0.88, 0.49, -12.80, 2.26, 1.63, 7.35, repro,
2009-05-30,1.19, 0.64, -12.82, 2.18, 1.60, 7.27, repro,
2009-05-31,1.23, 0.36, -9.79, 2.10, 1.57, 7.03, repro,
2009-06-01,-1.12, -0.51, -8.76, 2.10, 1.57, 7.03, repro,
2009-06-02,0.16, 0.75, -11.53, 2.10, 1.58, 7.08, repro,
2009-06-03,0.97, 0.13, -16.06, 2.11, 1.59, 7.08, repro,
2009-06-04,0.49, 0.73, -12.39, 2.12, 1.58, 7.07, repro,
2009-06-05,0.78, 1.30, -7.37, 2.11, 1.59, 7.12, repro,
2009-06-06,-0.08, -0.75, -3.12, 2.14, 1.62, 7.23, repro,
2009-06-07,0.33, -0.76, -14.61, 2.15, 1.63, 7.20, repro,
2009-06-08,-0.43, -0.27, -10.53, 2.11, 1.59, 7.11, repro,
2009-06-09,0.39, 0.52, -9.72, 2.10, 1.57, 7.01, repro,
2009-06-10,-0.15, -1.40, -15.67, 2.15, 1.62, 7.13, repro,
2009-06-11,0.24, -1.26, -14.19, 2.10, 1.58, 7.03, repro,
2009-06-12,-0.51, 0.23, -12.56, 2.08, 1.57, 7.00, repro,
2009-06-13,-0.41, -0.66, -12.13, 2.14, 1.63, 7.16, repro,
2009-06-14,-0.05, -0.20, -13.59, 2.14, 1.63, 7.18, repro,
2009-06-15,-0.27, -0.19, -12.73, 2.14, 1.62, 7.09, repro,
2009-06-16,-0.10, 0.73, -11.48, 2.10, 1.57, 7.00, repro,
2009-06-17,-0.67, 0.45, -8.16, 2.09, 1.57, 7.02, repro,
2009-06-18,1.59, 0.52, -11.38, 2.13, 1.63, 7.13, repro,
2009-06-19,0.23, 1.04, -14.14, 2.10, 1.57, 7.05, repro,
2009-06-20,2.78, 1.04, -1.82, 2.14, 1.64, 7.19, repro,